Flag for Denmark Weather past 2 weeks in Vejle, Denmark

Now
57 °F

Partly sunny.


Feels Like: 56 °F
Forecast: 49 / 58 °F
Wind: 7 mph from Southwest

Location: Billund Lufthavn

Current Time: Sep 23, 2014 at 6:55:57 PM

Latest Report: Sep 23, 2014 at 6:20 PM


Visibility: N/A

Pressure: 29.98 "Hg

Humidity: 63%

Dew point: 45 °F

Location of VejleLocation

Historic Weather in Vejle — Graph

°F

Vejle temperature yesterday

Maximum temperature yesterday: 57 °F (at 2:50 PM)
Minimum temperature yesterday: 43 °F (at 5:20 AM)
Average temperature yesterday: 49 °F

Past Weeks' High & Low Weather Summary

 TemperatureHumidityPressure
High70 °F (Sep 12, 3:20 PM)100% (Sep 9, 6:50 AM)30.36 "Hg (Sep 9, 6:50 AM)
Low36 °F (Sep 23, 3:50 AM)49% (Sep 12, 3:50 PM)29.77 "Hg (Sep 22, 3:20 AM)
Average58 °F84%30.09 "Hg
* Reported Sep 8 5:20 PM — Sep 23 5:50 PM, Vejle, Weather by CustomWeather, © 2014

Note: Actual official high and low records may vary slightly from our data, if they occured in-between our weather recording intervals... More about our weather records

Advertising

Vejle weather history for previous 24 hours

 ConditionsComfort  
Time TempWeatherWind HumidityBarometerVisibility
5:50 PM
Sep 23
57 °FPartly sunny.9 mph63%29.98 "HgN/A
5:20 PM57 °FBroken clouds.8 mph59%29.98 "HgN/A
4:50 PM59 °FPartly sunny.8 mph55%30.01 "HgN/A
4:20 PM59 °FScattered clouds.9 mph51%30.01 "HgN/A
3:50 PM61 °FScattered clouds.5 mph52%30.01 "HgN/A
3:20 PM59 °FScattered clouds.5 mph59%30.01 "HgN/A
2:50 PM59 °FScattered clouds.6 mph59%30.04 "HgN/A
2:20 PM59 °FPartly sunny.6 mph55%30.04 "HgN/A
1:50 PM59 °FPartly sunny.7 mph55%30.04 "HgN/A
1:20 PM59 °FPartly sunny.7 mph55%30.04 "HgN/A
12:20 PM59 °FBroken clouds.7 mph55%30.04 "HgN/A
11:50 AM57 °FBroken clouds.2 mph63%30.07 "HgN/A
11:20 AM55 °FBroken clouds.5 mph72%30.07 "HgN/A
10:50 AM54 °FScattered clouds.5 mph72%30.07 "HgN/A
10:20 AM52 °FScattered clouds.3 mph77%30.07 "HgN/A
9:50 AM50 °FScattered clouds.2 mph88%30.07 "HgN/A
9:20 AM48 °FPassing clouds.2 mph87%30.07 "HgN/A
8:50 AM46 °FPassing clouds.2 mph87%30.07 "HgN/A
8:20 AM41 °FPassing clouds.1 mph93%30.07 "HgN/A
7:50 AM37 °FFog.2 mph93%30.07 "HgN/A
7:20 AM37 °FFog.1 mph93%30.07 "HgN/A
6:50 AM37 °FClear.2 mph93%30.07 "Hg10 mi
6:20 AM36 °FLight fog.3 mph93%30.07 "HgN/A
5:50 AM36 °FLight fog.1 mph93%30.07 "HgN/A
5:20 AM36 °FLight fog.1 mph100%30.07 "HgN/A
4:50 AM36 °FLight fog.2 mph100%30.07 "HgN/A
4:20 AM37 °FLight fog.1 mph93%30.07 "HgN/A
3:50 AM36 °FFog.1 mph100%30.07 "HgN/A
3:20 AM37 °FClear.1 mph100%30.07 "Hg10 mi
2:50 AM39 °FClear.No wind93%30.09 "Hg10 mi
2:20 AM39 °FClear.No wind93%30.07 "Hg10 mi
1:50 AM39 °FClear.No wind93%30.07 "Hg10 mi
1:20 AM39 °FClear.No wind93%30.07 "Hg10 mi
12:50 AM43 °FClear.No wind87%30.09 "Hg10 mi
12:20 AM43 °FClear.1 mph87%30.07 "Hg10 mi
11:50 PM
Sep 22
43 °FClear.No wind87%30.09 "Hg10 mi
11:20 PM43 °FClear.2 mph87%30.09 "Hg10 mi
10:50 PM43 °FClear.2 mph87%30.07 "Hg10 mi
10:20 PM43 °FClear.6 mph87%30.07 "Hg10 mi
9:50 PM45 °FClear.6 mph81%30.07 "Hg10 mi
9:20 PM45 °FClear.3 mph81%30.07 "Hg10 mi
8:50 PM46 °FClear.5 mph82%30.07 "Hg10 mi
8:20 PM46 °FSunny.5 mph76%30.07 "Hg10 mi
7:50 PM48 °FSunny.6 mph71%30.04 "Hg10 mi
7:20 PM50 °FScattered clouds.9 mph67%30.04 "HgN/A
6:50 PM52 °FScattered clouds.13 mph62%30.04 "HgN/A
6:20 PM52 °FScattered clouds.14 mph62%30.04 "HgN/A
Weather by CustomWeather, © 2014

See weather overviewHow to use our weather pages